| time (UTC) | temp C | wind direction | speed KPH | gust KPH | rain 1hr cm | rain 24hr cm | rain mn cm | humidity % | barometer mb |
| 20260502233433 | 13 | 270 | 0.0 | 0.0 | 0.00 | 0.00 | 0.00 | 76 | 1025.3 |
| 20260502232930 | 13 | 254 | 0.0 | 1.6 | 0.00 | 0.00 | 0.00 | 71 | 1025.5 |
| 20260502232426 | 13 | 105 | 0.0 | 0.0 | 0.00 | 0.00 | 0.00 | 68 | 1025.4 |
| 20260502231923 | 13 | 135 | 3.2 | 3.2 | 0.00 | 0.00 | 0.00 | 67 | 1025.3 |
| 20260502231421 | 14 | 41 | 0.0 | 0.0 | 0.00 | 0.00 | 0.00 | 71 | 1025.2 |
| 20260502230919 | 14 | 41 | 0.0 | 4.8 | 0.00 | 0.00 | 0.00 | 66 | 1025.1 |
| 20260502230417 | 14 | 345 | 3.2 | 4.8 | 0.00 | 0.00 | 0.00 | 64 | 1025.1 |
| 20260502225915 | 15 | 23 | 0.0 | 0.0 | 0.00 | 0.00 | 0.00 | 65 | 1025.5 |
| 20260502225410 | 13 | 112 | 3.2 | 8.0 | 0.00 | 0.00 | 0.00 | 65 | 1025.2 |
| 20260502224907 | 14 | 83 | 6.4 | 6.4 | 0.00 | 0.00 | 0.00 | 64 | 1025.4 |
| 20260502224403 | 15 | 16 | 0.0 | 4.8 | 0.00 | 0.00 | 0.00 | 64 | 1025.3 |
| 20260502223900 | 13 | 0 | 1.6 | 3.2 | 0.00 | 0.00 | 0.00 | 65 | 1025.2 |
| 20260502223358 | 13 | 279 | 0.0 | 6.4 | 0.00 | 0.00 | 0.00 | 65 | 1025.3 |
| 20260502222856 | 13 | 6 | 4.8 | 8.0 | 0.00 | 0.00 | 0.00 | 66 | 1025.2 |
| 20260502222354 | 13 | 8 | 0.0 | 3.2 | 0.00 | 0.00 | 0.00 | 67 | 1025.1 |
| 20260502221849 | 13 | 283 | 0.0 | 6.4 | 0.00 | 0.00 | 0.00 | 66 | 1025.2 |
| 20260502221345 | 13 | 0 | 3.2 | 6.4 | 0.00 | 0.00 | 0.00 | 67 | 1025.1 |
| 20260502220842 | 13 | 9 | 4.8 | 4.8 | 0.00 | 0.00 | 0.00 | 70 | 1025.2 |
| 20260502220338 | 13 | 341 | 3.2 | 3.2 | 0.00 | 0.00 | 0.00 | 71 | 1025.2 |
| 20260502215835 | 14 | 0 | 0.0 | 3.2 | 0.00 | 0.00 | 0.00 | 72 | 1025.3 |
| 20260502215333 | 13 | 284 | 4.8 | 8.0 | 0.00 | 0.00 | 0.00 | 73 | 1025.2 |
| 20260502214829 | 14 | 36 | 3.2 | 9.7 | 0.00 | 0.00 | 0.00 | 72 | 1025.0 |
| 20260502214326 | 14 | 17 | 8.0 | 12.9 | 0.00 | 0.00 | 0.00 | 72 | 1024.9 |
| 20260502213824 | 14 | 329 | 6.4 | 8.0 | 0.00 | 0.00 | 0.00 | 73 | 1025.0 |
| 20260502213321 | 14 | 282 | 4.8 | 9.7 | 0.00 | 0.00 | 0.00 | 73 | 1024.8 |
| 20260502212820 | 14 | 237 | 0.0 | 9.7 | 0.00 | 0.00 | 0.00 | 72 | 1025.0 |
| 20260502212317 | 14 | 257 | 3.2 | 14.5 | 0.00 | 0.00 | 0.00 | 72 | 1025.0 |
| 20260502211814 | 15 | 23 | 1.6 | 4.8 | 0.00 | 0.00 | 0.00 | 71 | 1025.0 |
| 20260502211310 | 15 | 319 | 3.2 | 8.0 | 0.00 | 0.00 | 0.00 | 72 | 1024.9 |
| 20260502210808 | 15 | 15 | 0.0 | 4.8 | 0.00 | 0.00 | 0.00 | 71 | 1025.0 |
| 20260502210305 | 15 | 22 | 3.2 | 4.8 | 0.00 | 0.00 | 0.00 | 71 | 1025.1 |
| 20260502205802 | 15 | 286 | 0.0 | 11.3 | 0.00 | 0.00 | 0.00 | 71 | 1025.1 |
| 20260502205258 | 15 | 43 | 6.4 | 8.0 | 0.00 | 0.00 | 0.00 | 71 | 1025.0 |
| 20260502204755 | 15 | 159 | 0.0 | 4.8 | 0.00 | 0.00 | 0.00 | 71 | 1024.8 |
| 20260502204252 | 15 | 90 | 3.2 | 4.8 | 0.00 | 0.00 | 0.00 | 71 | 1025.0 |
| 20260502203750 | 15 | 0 | 1.6 | 4.8 | 0.00 | 0.00 | 0.00 | 71 | 1024.9 |
| 20260502203248 | 15 | 7 | 1.6 | 4.8 | 0.00 | 0.00 | 0.00 | 72 | 1025.1 |
| 20260502202747 | 15 | 95 | 0.0 | 9.7 | 0.00 | 0.00 | 0.00 | 73 | 1024.9 |
| 20260502202245 | 15 | 26 | 1.6 | 3.2 | 0.00 | 0.00 | 0.00 | 74 | 1025.1 |
| 20260502201743 | 15 | 40 | 0.0 | 3.2 | 0.00 | 0.00 | 0.00 | 73 | 1025.0 |
| 20260502201239 | 14 | 9 | 3.2 | 6.4 | 0.00 | 0.00 | 0.00 | 72 | 1025.1 |
| 20260502200735 | 15 | 113 | 4.8 | 4.8 | 0.00 | 0.00 | 0.00 | 72 | 1025.1 |
| 20260502200231 | 15 | 109 | 4.8 | 8.0 | 0.00 | 0.00 | 0.00 | 74 | 1025.0 |
| 20260502195730 | 14 | 0 | 3.2 | 11.3 | 0.00 | 0.00 | 0.00 | 75 | 1025.0 |
| 20260502195226 | 14 | 103 | 4.8 | 9.7 | 0.00 | 0.00 | 0.00 | 74 | 1025.1 |
| 20260502194723 | 14 | 102 | 3.2 | 11.3 | 0.00 | 0.00 | 0.00 | 75 | 1025.1 |
| 20260502194220 | 14 | 110 | 8.0 | 8.0 | 0.00 | 0.00 | 0.00 | 75 | 1025.2 |
| 20260502193715 | 14 | 126 | 6.4 | 9.7 | 0.00 | 0.00 | 0.00 | 75 | 1025.2 |
| 20260502193213 | 14 | 166 | 4.8 | 9.7 | 0.00 | 0.00 | 0.00 | 75 | 1025.4 |
| 20260502192708 | 15 | 58 | 4.8 | 8.0 | 0.00 | 0.00 | 0.00 | 75 | 1025.5 |
| 20260502192206 | 15 | 128 | 6.4 | 11.3 | 0.00 | 0.00 | 0.00 | 76 | 1025.6 |
| 20260502191657 | 14 | 81 | 6.4 | 8.0 | 0.00 | 0.00 | 0.00 | 76 | 1025.2 |
| 20260502191155 | 14 | 138 | 4.8 | 11.3 | 0.00 | 0.00 | 0.00 | 77 | 1025.4 |
| 20260502190652 | 14 | 111 | 8.0 | 12.9 | 0.00 | 0.00 | 0.00 | 77 | 1025.5 |
| 20260502190150 | 13 | 55 | 8.0 | 8.0 | 0.00 | 0.00 | 0.00 | 77 | 1025.4 |
| 20260502185644 | 14 | 80 | 3.2 | 11.3 | 0.00 | 0.00 | 0.00 | 81 | 1025.5 |
| 20260502185141 | 15 | 69 | 4.8 | 4.8 | 0.00 | 0.00 | 0.00 | 81 | 1025.6 |
| 20260502184637 | 14 | 90 | 1.6 | 4.8 | 0.00 | 0.00 | 0.00 | 81 | 1025.8 |
| 20260502184133 | 13 | 48 | 0.0 | 4.8 | 0.00 | 0.00 | 0.00 | 81 | 1026.0 |
| 20260502183630 | 13 | 115 | 8.0 | 9.7 | 0.00 | 0.00 | 0.00 | 81 | 1025.8 |
| 20260502183126 | 14 | 110 | 3.2 | 8.0 | 0.00 | 0.00 | 0.00 | 82 | 1025.6 |
| 20260502182621 | 14 | 66 | 4.8 | 9.7 | 0.00 | 0.00 | 0.00 | 80 | 1025.8 |
| 20260502182117 | 13 | 21 | 0.0 | 8.0 | 0.00 | 0.00 | 0.00 | 80 | 1026.2 |
| 20260502181614 | 14 | 78 | 0.0 | 4.8 | 0.00 | 0.00 | 0.00 | 83 | 1026.1 |
| 20260502181108 | 13 | 74 | 3.2 | 6.4 | 0.00 | 0.00 | 0.00 | 83 | 1025.9 |
| 20260502180605 | 13 | 108 | 8.0 | 9.7 | 0.00 | 0.00 | 0.00 | 83 | 1026.0 |
| 20260502164013 | 13 | 283 | 1.6 | 8.0 | 0.00 | 0.00 | 0.00 | 85 | 1027.0 |
| 20260502163509 | 13 | 126 | 6.4 | 8.0 | 0.00 | 0.00 | 0.00 | 86 | 1027.0 |
| 20260502163006 | 12 | 77 | 9.7 | 11.3 | 0.00 | 0.00 | 0.00 | 87 | 1027.2 |
| 20260502162503 | 12 | 0 | 0.0 | 8.0 | 0.00 | 0.00 | 0.00 | 89 | 1027.4 |
| 20260502162000 | 12 | 148 | 3.2 | 4.8 | 0.00 | 0.00 | 0.00 | 88 | 1027.6 |
| 20260502161456 | 12 | 94 | 4.8 | 8.0 | 0.00 | 0.00 | 0.00 | 89 | 1027.5 |
| 20260502160955 | 12 | 104 | 4.8 | 11.3 | 0.00 | 0.00 | 0.00 | 88 | 1027.9 |
| 20260502160452 | 12 | 101 | 8.0 | 9.7 | 0.00 | 0.00 | 0.00 | 88 | 1027.6 |
| 20260502151941 | 12 | 22 | 3.2 | 4.8 | 0.00 | 0.00 | 0.00 | 90 | 1027.2 |
| 20260502151438 | 12 | 29 | 4.8 | 8.0 | 0.00 | 0.00 | 0.00 | 88 | 1027.1 |
| 20260502150935 | 12 | 106 | 0.0 | 8.0 | 0.00 | 0.00 | 0.00 | 88 | 1027.3 |
| 20260502150432 | 12 | 6 | 6.4 | 8.0 | 0.00 | 0.00 | 0.00 | 87 | 1027.1 |
| 20260502130318 | 12 | 24 | 3.2 | 6.4 | 0.00 | 0.00 | 0.00 | 83 | 1026.5 |
| 20260502123803 | 12 | 0 | 3.2 | 8.0 | 0.00 | 0.00 | 0.00 | 84 | 1026.4 |
| 20260502123300 | 12 | 28 | 6.4 | 8.0 | 0.00 | 0.00 | 0.00 | 83 | 1026.6 |
| 20260502122757 | 12 | 270 | 1.6 | 6.4 | 0.00 | 0.00 | 0.00 | 85 | 1026.5 |
| 20260502122253 | 12 | 332 | 3.2 | 16.1 | 0.00 | 0.00 | 0.00 | 84 | 1026.4 |
| 20260502121751 | 12 | 0 | 3.2 | 6.4 | 0.00 | 0.00 | 0.00 | 85 | 1025.9 |
| 20260502121249 | 12 | 189 | 0.0 | 8.0 | 0.00 | 0.00 | 0.00 | 85 | 1026.0 |
| 20260502120745 | 11 | 117 | 0.0 | 6.4 | 0.00 | 0.00 | 0.00 | 87 | 1026.1 |
| 20260502120242 | 11 | 29 | 3.2 | 6.4 | 0.00 | 0.00 | 0.00 | 88 | 1026.1 |
| 20260502115740 | 11 | 70 | 3.2 | 6.4 | 0.00 | 0.00 | 0.00 | 87 | 1026.2 |
| 20260502115237 | 11 | 140 | 0.0 | 6.4 | 0.00 | 0.00 | 0.00 | 87 | 1026.1 |
| 20260502114732 | 11 | 41 | 3.2 | 9.7 | 0.00 | 0.00 | 0.00 | 87 | 1026.3 |
| 20260502114230 | 11 | 61 | 8.0 | 8.0 | 0.00 | 0.00 | 0.00 | 87 | 1026.0 |
| 20260502113727 | 11 | 13 | 8.0 | 8.0 | 0.00 | 0.00 | 0.00 | 87 | 1026.1 |
| 20260502113224 | 11 | 10 | 4.8 | 4.8 | 0.00 | 0.00 | 0.00 | 88 | 1026.2 |
| 20260502112722 | 11 | 350 | 0.0 | 6.4 | 0.00 | 0.00 | 0.00 | 88 | 1026.3 |
| 20260502112220 | 11 | 234 | 0.0 | 4.8 | 0.00 | 0.00 | 0.00 | 87 | 1026.2 |
| 20260502111717 | 11 | 18 | 4.8 | 11.3 | 0.00 | 0.00 | 0.00 | 86 | 1026.5 |
| 20260502111214 | 12 | 351 | 4.8 | 9.7 | 0.00 | 0.00 | 0.00 | 87 | 1026.3 |
| 20260502110712 | 11 | 351 | 6.4 | 8.0 | 0.00 | 0.00 | 0.00 | 88 | 1026.4 |
| 20260502110209 | 11 | 52 | 0.0 | 4.8 | 0.00 | 0.00 | 0.00 | 88 | 1026.5 |
| 20260502105707 | 12 | 331 | 0.0 | 4.8 | 0.00 | 0.00 | 0.00 | 87 | 1026.3 |
| 20260502105203 | 12 | 276 | 0.0 | 4.8 | 0.00 | 0.00 | 0.00 | 88 | 1026.3 |
| 20260502104701 | 12 | 354 | 1.6 | 4.8 | 0.00 | 0.00 | 0.00 | 86 | 1026.4 |
| 20260502104158 | 12 | 257 | 4.8 | 6.4 | 0.00 | 0.00 | 0.00 | 87 | 1026.4 |
| 20260502103655 | 12 | 109 | 0.0 | 6.4 | 0.00 | 0.00 | 0.00 | 85 | 1026.3 |
| 20260502103153 | 12 | 236 | 8.0 | 8.0 | 0.00 | 0.00 | 0.00 | 86 | 1026.3 |
| 20260502102650 | 12 | 312 | 3.2 | 8.0 | 0.00 | 0.00 | 0.00 | 86 | 1026.6 |
| 20260502102147 | 12 | 299 | 4.8 | 11.3 | 0.00 | 0.00 | 0.00 | 86 | 1026.4 |
| 20260502101645 | 12 | 286 | 3.2 | 4.8 | 0.00 | 0.00 | 0.00 | 87 | 1026.5 |
| 20260502101143 | 12 | 279 | 0.0 | 3.2 | 0.00 | 0.00 | 0.00 | 89 | 1026.3 |
| 20260502100641 | 12 | 261 | 3.2 | 4.8 | 0.00 | 0.00 | 0.00 | 90 | 1026.3 |
| 20260502100139 | 12 | 336 | 3.2 | 6.4 | 0.00 | 0.00 | 0.00 | 91 | 1026.6 |
| 20260502091113 | 11 | 270 | 0.0 | 0.0 | 0.00 | 0.00 | 0.00 | 97 | 1026.5 |
| 20260502090610 | 11 | 270 | 0.0 | 0.0 | 0.00 | 0.00 | 0.00 | 96 | 1026.4 |
| 20260502090107 | 11 | 337 | 0.0 | 0.0 | 0.00 | 0.00 | 0.00 | 96 | 1026.2 |
| 20260502071504 | 11 | 173 | 0.0 | 0.0 | 0.00 | 0.00 | 0.00 | 98 | 1025.7 |
| 20260502071002 | 11 | 168 | 1.6 | 1.6 | 0.00 | 0.00 | 0.00 | 98 | 1025.5 |
| 20260502070500 | 11 | 8 | 0.0 | 0.0 | 0.00 | 0.00 | 0.00 | 98 | 1025.7 |
| 20260502065958 | 11 | 352 | 0.0 | 0.0 | 0.00 | 0.00 | 0.00 | 99 | 1025.6 |
| 20260502065456 | 11 | 0 | 0.0 | 0.0 | 0.00 | 0.00 | 0.00 | 99 | 1025.4 |
| 20260502064954 | 11 | 0 | 0.0 | 0.0 | 0.00 | 0.00 | 0.00 | 99 | 1025.8 |
| 20260502064452 | 11 | 0 | 0.0 | 0.0 | 0.00 | 0.00 | 0.00 | 99 | 1025.7 |
| 20260502063949 | 11 | 279 | 0.0 | 0.0 | 0.00 | 0.00 | 0.00 | 99 | 1025.7 |
| 20260502063447 | 11 | 279 | 0.0 | 0.0 | 0.00 | 0.00 | 0.00 | 99 | 1025.7 |
| 20260502062944 | 11 | 279 | 0.0 | 0.0 | 0.00 | 0.00 | 0.00 | 98 | 1025.6 |
| 20260502062441 | 11 | 165 | 0.0 | 0.0 | 0.00 | 0.00 | 0.00 | 98 | 1025.7 |
| 20260502061940 | 11 | 195 | 0.0 | 0.0 | 0.00 | 0.00 | 0.00 | 98 | 1025.7 |
| 20260502061437 | 11 | 209 | 0.0 | 3.2 | 0.00 | 0.00 | 0.00 | 98 | 1025.8 |
| 20260502060933 | 11 | 203 | 0.0 | 0.0 | 0.00 | 0.00 | 0.00 | 98 | 1025.8 |
| 20260502060428 | 11 | 195 | 0.0 | 1.6 | 0.00 | 0.00 | 0.00 | 98 | 1025.7 |
| 20260502055925 | 11 | 8 | 0.0 | 0.0 | 0.00 | 0.00 | 0.00 | 98 | 1025.6 |
| 20260502055424 | 11 | 8 | 0.0 | 0.0 | 0.00 | 0.00 | 0.00 | 97 | 1025.7 |
| 20260502054923 | 11 | 8 | 0.0 | 0.0 | 0.00 | 0.00 | 0.00 | 97 | 1025.7 |
| 20260502054420 | 11 | 8 | 0.0 | 0.0 | 0.00 | 0.00 | 0.00 | 97 | 1025.8 |
| 20260502053918 | 11 | 15 | 0.0 | 1.6 | 0.00 | 0.00 | 0.00 | 97 | 1025.9 |
| 20260502053415 | 11 | 285 | 1.6 | 1.6 | 0.00 | 0.00 | 0.00 | 97 | 1026.1 |
| 20260502052912 | 11 | 180 | 0.0 | 0.0 | 0.00 | 0.00 | 0.00 | 97 | 1025.9 |
| 20260502052411 | 11 | 195 | 0.0 | 0.0 | 0.00 | 0.00 | 0.00 | 97 | 1026.1 |
| 20260502051908 | 11 | 195 | 0.0 | 1.6 | 0.00 | 0.00 | 0.00 | 97 | 1026.1 |
| 20260502051406 | 11 | 203 | 0.0 | 0.0 | 0.00 | 0.00 | 0.00 | 96 | 1026.0 |
| 20260502050903 | 11 | 195 | 0.0 | 0.0 | 0.00 | 0.00 | 0.00 | 97 | 1026.4 |
| 20260502050359 | 11 | 195 | 0.0 | 0.0 | 0.00 | 0.00 | 0.00 | 96 | 1026.2 |
| 20260502045856 | 11 | 203 | 1.6 | 1.6 | 0.00 | 0.00 | 0.00 | 96 | 1026.1 |
| 20260502045353 | 11 | 0 | 0.0 | 0.0 | 0.00 | 0.00 | 0.00 | 96 | 1026.5 |
| 20260502044850 | 11 | 0 | 0.0 | 0.0 | 0.00 | 0.00 | 0.00 | 96 | 1026.6 |
| 20260502044346 | 11 | 0 | 0.0 | 0.0 | 0.00 | 0.00 | 0.00 | 96 | 1026.3 |
| 20260502043843 | 11 | 0 | 0.0 | 0.0 | 0.00 | 0.00 | 0.00 | 96 | 1026.5 |
| 20260502043340 | 11 | 0 | 0.0 | 1.6 | 0.00 | 0.00 | 0.00 | 96 | 1026.5 |
| 20260502042834 | 11 | 82 | 0.0 | 0.0 | 0.00 | 0.00 | 0.00 | 96 | 1026.3 |
| 20260502042332 | 11 | 82 | 0.0 | 0.0 | 0.00 | 0.00 | 0.00 | 96 | 1026.4 |
| 20260502041829 | 11 | 82 | 0.0 | 0.0 | 0.00 | 0.00 | 0.00 | 95 | 1026.4 |
| 20260502041326 | 11 | 82 | 0.0 | 0.0 | 0.00 | 0.00 | 0.00 | 95 | 1026.6 |
| 20260502040823 | 11 | 99 | 0.0 | 1.6 | 0.00 | 0.00 | 0.00 | 95 | 1026.4 |
| 20260502040320 | 11 | 270 | 0.0 | 0.0 | 0.00 | 0.00 | 0.00 | 95 | 1026.7 |
| 20260502035816 | 11 | 270 | 0.0 | 0.0 | 0.00 | 0.00 | 0.00 | 95 | 1026.7 |
| 20260502035313 | 11 | 264 | 0.0 | 0.0 | 0.00 | 0.00 | 0.00 | 95 | 1026.7 |
| 20260502034811 | 11 | 264 | 0.0 | 0.0 | 0.00 | 0.00 | 0.00 | 95 | 1026.5 |
| 20260502034309 | 11 | 264 | 0.0 | 1.6 | 0.00 | 0.00 | 0.00 | 94 | 1027.0 |
| 20260502033807 | 11 | 261 | 0.0 | 0.0 | 0.00 | 0.00 | 0.00 | 93 | 1026.7 |
| 20260502033304 | 11 | 352 | 0.0 | 0.0 | 0.00 | 0.00 | 0.00 | 93 | 1026.7 |
| 20260502032801 | 11 | 243 | 1.6 | 3.2 | 0.00 | 0.00 | 0.00 | 93 | 1026.6 |
| 20260502032257 | 11 | 270 | 0.0 | 0.0 | 0.00 | 0.00 | 0.00 | 93 | 1026.5 |
| 20260502031755 | 11 | 270 | 0.0 | 0.0 | 0.00 | 0.00 | 0.00 | 93 | 1026.4 |
| 20260502031253 | 11 | 261 | 0.0 | 0.0 | 0.00 | 0.00 | 0.00 | 92 | 1026.7 |
| 20260502030751 | 11 | 270 | 0.0 | 1.6 | 0.00 | 0.00 | 0.00 | 92 | 1026.5 |
| 20260502030248 | 11 | 270 | 0.0 | 0.0 | 0.00 | 0.00 | 0.00 | 92 | 1026.7 |
| 20260502025746 | 11 | 0 | 0.0 | 0.0 | 0.00 | 0.00 | 0.00 | 91 | 1026.7 |
| 20260502025243 | 12 | 246 | 0.0 | 0.0 | 0.00 | 0.00 | 0.00 | 91 | 1026.7 |
| 20260502024741 | 12 | 249 | 0.0 | 0.0 | 0.00 | 0.00 | 0.00 | 90 | 1026.7 |
| 20260502024239 | 12 | 250 | 0.0 | 0.0 | 0.00 | 0.00 | 0.00 | 90 | 1026.9 |
| 20260502023737 | 12 | 250 | 0.0 | 0.0 | 0.00 | 0.00 | 0.00 | 89 | 1026.9 |
| 20260502023234 | 12 | 250 | 0.0 | 4.8 | 0.00 | 0.00 | 0.00 | 89 | 1026.9 |
| 20260502022732 | 12 | 353 | 0.0 | 0.0 | 0.00 | 0.00 | 0.00 | 90 | 1026.7 |
| 20260502022227 | 12 | 261 | 0.0 | 0.0 | 0.00 | 0.00 | 0.00 | 90 | 1027.0 |
| 20260502021725 | 12 | 261 | 0.0 | 0.0 | 0.00 | 0.00 | 0.00 | 89 | 1027.0 |
| 20260502021222 | 12 | 285 | 0.0 | 1.6 | 0.00 | 0.00 | 0.00 | 89 | 1026.6 |
| 20260502020719 | 12 | 0 | 0.0 | 0.0 | 0.00 | 0.00 | 0.00 | 88 | 1026.6 |
| 20260502020216 | 12 | 8 | 0.0 | 1.6 | 0.00 | 0.00 | 0.00 | 89 | 1027.0 |
| 20260502015714 | 12 | 270 | 0.0 | 0.0 | 0.00 | 0.00 | 0.00 | 88 | 1027.0 |
| 20260502015210 | 12 | 254 | 0.0 | 0.0 | 0.00 | 0.00 | 0.00 | 88 | 1026.6 |
| 20260502014708 | 12 | 254 | 0.0 | 1.6 | 0.00 | 0.00 | 0.00 | 87 | 1026.9 |
| 20260502014205 | 12 | 8 | 0.0 | 0.0 | 0.00 | 0.00 | 0.00 | 87 | 1026.5 |
| 20260502013701 | 12 | 8 | 0.0 | 0.0 | 0.00 | 0.00 | 0.00 | 87 | 1027.0 |
| 20260502013155 | 12 | 0 | 1.6 | 3.2 | 0.00 | 0.00 | 0.00 | 87 | 1026.9 |
| 20260502012654 | 12 | 328 | 0.0 | 1.6 | 0.00 | 0.00 | 0.00 | 87 | 1026.6 |
| 20260502012152 | 12 | 12 | 0.0 | 1.6 | 0.00 | 0.00 | 0.00 | 87 | 1026.6 |
| 20260502011648 | 12 | 194 | 0.0 | 1.6 | 0.00 | 0.00 | 0.00 | 87 | 1026.7 |
| 20260502011144 | 12 | 0 | 0.0 | 1.6 | 0.00 | 0.00 | 0.00 | 87 | 1026.6 |
| 20260502010642 | 12 | 0 | 0.0 | 1.6 | 0.00 | 0.00 | 0.00 | 86 | 1026.5 |
| 20260502010138 | 12 | 15 | 0.0 | 1.6 | 0.00 | 0.00 | 0.00 | 86 | 1026.4 |
| 20260502005635 | 12 | 29 | 0.0 | 0.0 | 0.00 | 0.00 | 0.00 | 85 | 1026.4 |
| 20260502005133 | 12 | 29 | 0.0 | 3.2 | 0.00 | 0.00 | 0.00 | 84 | 1026.3 |
| 20260502004628 | 12 | 90 | 0.0 | 3.2 | 0.00 | 0.00 | 0.00 | 85 | 1026.5 |
| 20260502004126 | 12 | 194 | 0.0 | 0.0 | 0.00 | 0.00 | 0.00 | 86 | 1026.5 |
| 20260502003624 | 12 | 194 | 0.0 | 0.0 | 0.00 | 0.00 | 0.00 | 84 | 1026.3 |
| 20260502003120 | 12 | 209 | 0.0 | 1.6 | 0.00 | 0.00 | 0.00 | 83 | 1026.1 |
| 20260502002616 | 12 | 114 | 0.0 | 3.2 | 0.00 | 0.00 | 0.00 | 82 | 1026.0 |
| 20260502002114 | 12 | 95 | 3.2 | 3.2 | 0.00 | 0.00 | 0.00 | 82 | 1025.8 |
| 20260502001612 | 13 | 90 | 0.0 | 3.2 | 0.00 | 0.00 | 0.00 | 82 | 1025.9 |
| 20260502001108 | 13 | 81 | 0.0 | 4.8 | 0.00 | 0.00 | 0.00 | 81 | 1025.9 |
| 20260502000607 | 13 | 45 | 0.0 | 3.2 | 0.00 | 0.00 | 0.00 | 81 | 1025.9 |
| 20260501235559 | 13 | 98 | 1.6 | 4.8 | 0.00 | 0.00 | 0.00 | 79 | 1025.9 |
| 20260501235055 | 13 | 176 | 3.2 | 4.8 | 0.00 | 0.00 | 0.00 | 78 | 1026.0 |
| 20260501234551 | 13 | 74 | 0.0 | 4.8 | 0.00 | 0.00 | 0.00 | 78 | 1026.0 |
| 20260501234049 | 14 | 254 | 1.6 | 3.2 | 0.00 | 0.00 | 0.00 | 77 | 1026.1 |